Theta_e
294 295 296 298 302 301 303 304 302 303 303 303 301 300 298 297 295 296 296 296 298 300 299 299 299 297 296 295 297 300 298 295 295 297 298 298 299 297 297 297 296 292 292
292 294 295 297 301 300 301 302 303 304 304 305 301 299 296 293 292 291 292 292 293 293 293 292 291 291 290 289 290 290 293 293 291 291 294 293 296 294 297 293 293 288 289
291 292 293 295 297 300 300 300 301 303 302 299 296 294 293 291 289 288 287 289 290 290 290 289 289 288 288 287 287 287 287 286 288 287 289 287 285 287 292 288 288 286 287
293 292 293 294 295 296 300 301 301 300 299 296 294 292 290 287 287 286 286 287 288 288 288 288 288 287 287 286 286 287 285 285 283 286 288 284 286 282 279 284 284 286 286
292 291 291 294 294 294 294 296 294 295 296 296 294 290 287 287 286 286 285 285 285 286 286 286 285 285 286 285 284 284 284 284 282 282 283 282 281 281 279 276 279 281 283
291 291 291 291 291 291 292 292 291 291 292 292 290 288 286 286 285 284 284 283 283 284 284 285 284 284 283 283 283 283 282 282 282 282 281 281 279 278 278 276 277 277 280
290 290 288 288 288 288 289 290 289 289 290 289 289 288 287 286 285 284 283 283 282 282 282 283 282 282 282 283 283 281 281 281 280 280 280 281 281 281 280 278 276 276 278
290 289 288 288 288 288 288 287 287 287 287 288 287 287 287 285 285 285 284 283 282 282 282 282 282 281 282 282 282 280 280 280 279 279 279 279 280 281 280 279 277 275 276
290 289 289 287 287 287 286 286 286 286 286 286 286 285 285 284 284 284 283 282 282 283 282 282 281 281 281 281 281 279 279 279 279 279 279 279 279 280 279 279 279 277 273
290 290 289 288 287 287 286 286 286 285 286 285 285 285 284 284 284 283 282 282 281 281 281 281 280 280 279 279 279 278 278 278 278 278 278 277 278 278 278 278 278 277 275
290 290 289 288 287 286 286 285 285 285 284 285 284 283 283 283 283 282 282 281 281 281 280 280 279 279 278 278 277 277 277 277 277 277 277 277 277 276 276 276 276 276 275
291 290 289 287 286 286 286 285 284 284 284 284 283 282 282 282 282 281 281 281 280 280 279 279 279 278 278 277 277 277 277 276 276 277 276 276 278 275 275 275 274 274 274
291 290 289 287 286 286 285 285 284 284 284 283 282 282 281 281 281 281 281 281 280 279 278 278 277 277 277 277 277 277 277 277 277 277 276 276 275 275 274 273 273 273 275
291 290 289 288 287 286 285 285 284 284 283 283 282 281 280 281 281 280 280 280 279 278 277 277 277 277 276 276 276 276 276 276 277 277 277 276 275 274 274 274 273 274 273
291 290 290 288 287 286 286 285 285 284 284 283 281 281 281 281 281 280 279 279 278 278 277 276 276 276 275 276 275 276 276 276 276 276 276 276 276 278 277 275 274 273 272
291 291 290 289 288 287 286 286 285 284 284 282 281 281 281 281 280 280 279 278 277 277 276 275 275 274 276 278 278 277 276 276 276 275 275 275 276 275 277 278 278 277 273
292 291 290 290 289 288 287 286 285 284 283 281 280 280 281 280 279 279 278 277 276 276 275 274 274 274 274 278 279 278 277 275 275 275 275 275 275 275 274 275 277 277 277
291 291 291 291 290 288 288 286 284 282 282 281 280 279 280 279 277 277 276 275 275 274 274 273 273 273 274 278 279 278 275 274 274 274 274 274 274 274 274 274 273 274 275
293 292 292 291 290 288 287 286 283 282 281 280 280 279 279 277 277 276 275 275 274 273 272 272 271 271 271 278 278 277 273 273 273 275 274 274 273 275 278 276 273 274 275
290 289 289 287 287 285 285 284 282 281 280 280 281 280 278 277 277 276 274 274 272 274 273 273 271 270 267 276 277 277 273 267 272 273 275 277 276 278 279 276 274 271 271
286 285 285 285 284 283 282 281 280 281 280 279 278 277 278 278 277 275 272 272 270 272 269 270 268 267 268 269 276 277 274 271 270 271 272 274 277 278 279 279 274 271 274
283 282 282 281 281 281 281 279 279 279 277 277 276 275 275 277 275 274 269 270 270 267 265 264 264 268 269 271 274 276 277 276 272 270 273 273 276 278 278 277 276 276 273
281 281 280 279 279 278 278 278 278 277 275 274 273 272 272 273 272 271 269 267 266 267 266 267 266 267 270 269 275 276 276 277 275 273 274 277 277 276 273 273 273 271 264
279 277 278 276 275 275 277 274 275 275 273 272 272 270 270 268 268 269 269 268 267 266 267 267 267 264 267 268 268 269 270 273 274 274 272 272 275 274 271 267 268 267 265
278 277 277 276 276 274 274 272 273 274 272 271 270 268 267 268 266 267 266 268 266 268 263 263 264 264 264 266 271 269 266 267 270 271 266 262 261 261 262 261 262 264 263
275 275 274 274 274 274 271 271 272 272 271 269 269 269 269 267 267 266 264 274 274 275 277 277 269 263 272 274 276 277 277 278 278 268 256 257 259 261 260 259 260 261 262
Wind_Speed
8 7 6 6 6 6 6 6 8 6 5 4 5 5 6 7 6 7 8 7 6 8 7 6 7 7 8 7 8 4 6 7 8 4 4 4 6 6 5 5 6 6 8
8 7 7 7 6 7 6 6 6 5 4 3 4 4 5 5 6 5 7 8 10 8 9 8 7 7 7 9 8 7 3 4 8 3 1 2 3 5 5 5 6 7 5
12 9 7 6 6 8 7 6 6 5 6 9 7 7 6 4 5 5 5 7 8 9 8 8 7 7 5 6 6 6 7 5 5 10 4 4 2 3 2 5 5 6 5
11 10 9 8 7 6 6 6 7 8 7 8 7 7 5 6 3 5 5 6 7 8 8 8 7 7 5 7 5 6 6 4 5 3 5 5 2 2 5 5 3 8 6
12 12 10 8 8 7 6 6 7 6 6 7 8 8 9 5 4 5 8 7 6 7 7 7 7 7 6 6 7 7 7 5 4 4 3 3 3 4 1 4 5 3 5
11 11 9 9 7 7 7 7 7 5 7 8 9 9 9 8 7 5 6 5 4 4 6 8 7 7 6 6 6 6 8 6 6 4 5 3 2 2 3 3 4 5 4
12 12 12 9 9 8 8 7 8 8 7 9 9 9 9 8 8 7 5 6 4 3 5 6 6 5 6 6 6 6 6 6 4 5 4 3 3 2 1 2 3 3 4
12 12 12 10 10 10 9 8 9 8 8 8 8 8 9 5 5 6 5 5 5 4 5 6 6 6 6 6 6 4 3 5 4 4 4 2 2 2 1 1 2 4 3
13 14 13 10 10 10 9 9 10 7 8 8 7 7 7 8 7 8 6 5 6 4 6 6 7 6 6 6 6 4 3 4 3 3 3 2 2 2 3 2 1 1 4
14 13 13 12 10 9 8 8 8 9 8 8 7 6 7 8 7 7 8 7 6 5 6 6 6 6 6 6 6 4 4 4 2 3 4 3 2 3 3 3 3 2 3
16 14 12 11 11 8 8 8 9 10 9 8 7 8 7 8 7 7 7 7 6 6 6 6 6 6 6 5 5 4 4 3 3 3 4 4 4 3 3 3 3 3 2
15 14 14 13 13 12 10 10 8 10 8 8 8 8 7 7 8 7 8 7 7 6 6 6 6 6 6 5 4 3 2 2 2 2 3 4 3 4 4 3 4 3 3
15 14 14 15 14 13 12 11 10 11 10 9 9 8 8 8 8 8 8 7 7 7 6 6 6 6 5 4 2 2 0 1 2 3 4 4 4 4 3 3 4 3 6
18 16 15 15 14 14 13 12 10 11 10 10 9 9 8 8 7 8 8 8 7 7 7 6 6 5 4 3 2 2 1 2 3 4 5 5 5 5 4 4 4 6 6
17 18 17 15 15 14 14 13 12 12 12 11 10 10 8 8 8 8 8 8 7 7 6 6 6 5 4 2 3 1 1 3 5 5 5 5 6 10 10 6 5 5 6
19 18 15 14 16 16 15 14 13 11 13 11 11 8 9 8 8 9 9 7 7 7 6 6 6 5 3 7 6 5 4 3 5 5 5 5 5 8 13 14 16 13 8
18 17 17 16 14 15 15 15 13 10 12 10 8 9 10 9 9 9 9 8 8 6 6 6 6 6 5 9 10 10 4 4 4 6 7 7 5 5 5 11 16 16 19
12 12 10 10 9 9 10 10 9 11 11 11 9 8 9 9 8 9 9 7 6 8 6 6 6 6 6 13 11 10 4 4 6 7 7 7 7 6 8 9 11 11 11
10 11 10 9 9 9 10 10 9 11 11 11 10 10 10 9 10 11 10 6 6 6 6 4 6 7 5 12 11 9 3 6 8 8 7 7 9 12 15 12 8 10 9
9 9 9 7 10 7 11 12 10 11 11 11 11 10 9 11 12 11 11 6 5 7 7 6 7 7 5 11 12 10 3 4 6 6 9 12 13 17 17 9 7 7 10
9 8 9 11 10 9 10 10 9 12 9 7 8 8 10 11 10 8 5 7 6 6 6 6 4 5 6 7 13 14 6 5 5 5 5 5 15 17 18 15 6 9 15
9 8 9 7 7 9 10 10 12 7 8 8 8 8 8 7 7 9 5 6 7 6 5 4 3 4 6 11 13 15 16 13 8 6 6 5 16 18 15 13 18 21 13
8 6 8 8 6 7 7 10 6 8 8 8 7 6 6 6 6 9 8 5 6 6 6 6 6 5 5 6 15 15 16 18 11 5 9 19 12 10 8 13 16 10 2
7 5 8 7 6 6 7 4 7 8 8 7 7 6 7 5 4 4 5 6 7 6 5 5 5 3 3 5 5 5 6 12 11 12 6 7 11 9 8 3 7 4 3
4 6 7 6 7 6 6 4 6 8 6 6 6 5 4 6 5 3 4 4 3 6 4 4 4 4 4 4 9 8 5 6 10 10 2 1 1 2 2 2 4 3 3
4 4 3 3 4 4 4 5 6 7 7 5 5 5 5 4 4 5 2 10 11 13 14 13 8 3 8 12 15 16 18 19 20 2 3 3 3 3 2 3 4 3 4
Wind_Direction
129 139 124 133 119 105 114 117 119 121 118 105 100 85 83 76 62 56 53 46 48 54 52 55 63 51 55 36 30 44 62 25 359 29 9 37 74 52 69 65 64 36 17
141 152 155 157 150 130 125 121 129 142 140 109 83 84 96 84 83 63 60 52 45 43 62 57 61 62 54 41 34 36 45 53 22 35 237 48 354 14 71 48 54 35 9
155 157 155 160 143 140 139 133 149 145 99 98 97 99 94 75 78 59 65 52 52 58 61 59 61 64 66 61 42 37 40 52 18 36 73 33 359 329 342 60 41 28 17
147 149 160 159 154 132 125 134 127 117 119 125 128 137 116 115 97 102 89 75 60 59 56 60 64 66 57 59 54 40 42 47 48 23 23 50 75 48 328 341 8 19 353
146 147 159 155 138 137 138 120 108 118 143 154 124 112 111 109 109 100 93 78 63 65 64 64 62 61 56 58 59 42 41 44 57 55 12 13 15 57 30 297 331 345 336
143 143 135 129 137 129 130 134 136 129 113 104 105 115 125 132 126 117 108 98 79 69 74 77 72 69 66 61 61 56 47 45 46 46 46 63 44 14 358 322 313 298 301
149 148 150 159 153 162 157 150 143 140 132 121 126 133 133 129 123 125 125 125 106 85 78 76 74 75 79 74 63 62 57 50 51 45 42 22 43 27 329 286 300 293 285
160 161 167 166 162 160 160 155 151 142 130 123 129 130 126 130 123 126 130 112 110 113 99 92 90 83 80 82 85 76 72 73 63 65 66 17 4 13 2 307 327 313 296
169 170 170 163 159 163 169 162 147 137 131 128 124 122 121 114 123 115 109 106 116 122 121 121 115 108 91 85 99 101 75 69 66 55 41 21 357 355 336 311 282 266 316
176 176 173 165 162 169 167 151 143 141 136 131 129 129 123 122 129 120 122 125 131 131 134 128 120 120 108 92 101 89 70 72 35 65 29 5 326 342 342 329 331 318 258
181 178 172 166 164 162 167 157 147 142 141 140 140 133 135 142 133 132 130 139 146 150 140 141 137 125 111 93 97 98 86 62 31 11 27 328 326 328 336 326 316 303 297
183 179 172 168 170 171 170 165 152 150 152 144 139 147 150 147 138 141 142 145 152 144 147 149 133 118 110 97 91 104 85 62 359 332 331 308 329 319 315 307 308 296 287
181 176 174 181 178 174 171 166 164 159 155 147 150 157 163 154 153 150 148 150 142 150 155 151 134 123 102 109 116 138 179 334 305 294 287 293 299 294 295 304 313 313 299
182 183 185 185 180 178 174 172 166 160 161 156 156 167 170 161 162 152 151 150 157 161 167 152 132 125 138 154 194 191 278 285 283 281 279 279 278 283 305 316 294 298 297
184 189 188 186 179 177 175 174 173 165 167 166 167 178 162 160 159 154 154 156 163 170 162 145 142 155 162 199 189 108 297 286 281 280 278 269 262 277 287 285 261 261 280
191 192 186 181 181 180 178 175 175 165 167 171 179 163 162 166 162 154 160 154 159 163 152 161 174 181 186 211 209 220 226 258 281 285 279 275 281 283 286 289 291 284 284
191 188 185 184 180 180 175 177 171 155 166 166 166 169 168 168 164 158 155 166 177 168 174 184 183 195 204 222 223 234 236 258 270 276 277 277 273 282 280 283 287 286 284
172 174 170 166 167 156 159 151 153 157 160 170 171 168 168 167 156 157 170 171 171 177 179 189 193 197 211 222 227 232 232 249 258 261 262 263 270 260 271 271 268 267 267
168 163 158 159 153 152 154 142 143 150 165 174 174 177 169 164 163 177 180 180 166 177 181 183 190 204 207 225 230 231 218 253 257 260 259 254 258 261 280 273 275 285 286
123 134 149 133 140 143 134 141 153 159 176 173 182 174 167 170 182 184 181 170 171 189 186 194 199 205 197 225 234 235 204 240 260 264 267 261 263 267 279 287 289 304 304
133 125 128 141 143 135 135 146 154 187 182 156 157 165 175 183 186 169 158 166 169 166 183 197 199 190 188 219 242 243 227 232 252 257 260 263 280 287 286 296 315 297 300
135 132 127 130 137 143 146 154 184 178 153 156 161 168 171 171 165 168 156 163 165 173 185 173 220 213 212 213 238 241 238 236 239 234 249 257 277 282 288 307 310 304 327
139 132 139 139 146 156 159 164 197 153 148 148 161 158 150 155 154 159 162 148 164 182 194 206 222 227 213 206 235 232 239 245 255 247 252 265 287 300 319 305 300 319 336
145 130 133 145 166 172 180 183 148 144 145 152 154 150 152 145 144 146 163 174 183 194 197 205 223 199 200 192 202 220 248 262 264 264 276 256 265 282 295 320 290 280 267
139 154 161 171 199 173 196 153 140 140 149 142 142 142 143 158 159 170 171 183 200 185 181 204 189 189 217 216 219 216 216 225 237 242 151 120 206 230 249 266 264 259 263
140 137 163 165 207 185 157 154 157 152 143 145 154 162 159 164 160 171 215 231 216 225 237 228 188 228 232 242 245 252 254 254 248 208 158 212 204 212 211 241 265 252 264